London, United Kingdom

9:03 AM BST on 四月 23, 2017 (GMT +0100)
Heathrow Airport

天気 に付いての歴史 EGLL - 四月, 2017

Change the Weather History Date:

金曜日, 四月 21, 2017

  Actual Average Record
Temperature  
平均温度 52 °F -  
最高温度 60 °F 60 °F 77 °F (2011)
最低温度 45 °F 45 °F 30 °F (1997)
Degree Days  
暖房度日 12    
Growing Degree Days 2 (Base 50)    
Moisture  
露点温度 44 °F    
Average Humidity 69    
Maximum Humidity 95    
Minimum Humidity 38    
降水確率  
降水確率 0.00 インチ - - ()
海面圧  
海面圧 30.47 インチ    
 
風速 5 Mph ()    
最大風速 10 Mph    
Max Gust Speed -    
視程 6.8 マイル    
イベント      
Averages and records for this station are not official NWS values.
T = Trace of Precipitation, MM = Missing Value Source: Averaged Metar Reports

Daily Weather History Graph

Daily Weather History Graph

Search for Another Location

Airport or City:

Trip Planner

Search our weather history database for the weather conditions in past years. The results will help you decide how hot, cold, wet, or windy it might be!

Date:

天文

Apr. 21, 2017 入り
実時間 5:53 AM BST 8:08 PM BST
常用薄明 5:17 AM BST 8:45 PM BST
航海薄明 4:31 AM BST 9:31 PM BST
天文薄明 3:38 AM BST 10:24 PM BST
3:48 AM BST (4/21) 1:51 PM BST (4/21)
可視光の長さ 15h 28m
可照時間
14h 15m
二十六夜, 30% of the Moon is Illuminated
4月 21
二十六夜
4月 26
新しい
5月 3
上弦
5月 10
満月
5月 19
第 4 四半期

Hourly Weather History & Observations

時間 (BST) 温度 体感気温(寒さ) 露点温度 湿度 気圧 視程 Wind Dir 風速 突風の速度 Precip イベント 現在の気象状況
12:20 AM 50.0 °F - 48.2 °F 94% 30.54 インチ 3.7 マイル 西北西 3.5 Mph - N/A   所により曇
12:50 AM 48.2 °F - 46.4 °F 93% 30.54 インチ 3.7 マイル 西北西 4.6 Mph - N/A   情報なし
1:00 AM 51 °F - 48 °F 87% 30.53 インチ 5 マイル 西北西 4.6 Mph - -   もや(軽度)
1:20 AM 50.0 °F - 48.2 °F 94% 30.51 インチ 3.1 マイル 北西 3.5 Mph - N/A   煙霧
1:50 AM 48.2 °F - 46.4 °F 93% 30.51 インチ - 北西 2.3 Mph - N/A   煙霧
2:00 AM 49 °F - 47 °F 92% 30.53 インチ 3 マイル 西北西 2.3 Mph - -   もや
2:20 AM 48.2 °F - 46.4 °F 93% 30.51 インチ 2.2 マイル 西北西 3.5 Mph - N/A   もや
2:50 AM 48.2 °F - 46.4 °F 93% 30.51 インチ 1.6 マイル 西 3.5 Mph - N/A   もや
3:20 AM 48.2 °F - 46.4 °F 93% 30.51 インチ 1.7 マイル 西南西 4.6 Mph - N/A   もや
3:50 AM 48.2 °F - 46.4 °F 93% 30.51 インチ - 西 4.6 Mph - N/A   煙霧
4:00 AM 47 °F - 46 °F 95% 30.51 インチ 3 マイル 西 5.8 Mph - -   もや
4:20 AM 48.2 °F - 46.4 °F 93% 30.51 インチ 3.1 マイル 西 6.9 Mph - N/A   煙霧
4:50 AM 46.4 °F 44.3 °F 44.6 °F 93% 30.51 インチ 4.3 マイル 西 4.6 Mph - N/A   やや曇
5:00 AM 45 °F - 44 °F 93% 30.50 インチ 5 マイル 西 4.6 Mph - -   もや(軽度)
5:20 AM 48.2 °F - 44.6 °F 87% 30.48 インチ 5.6 マイル 西 4.6 Mph - N/A   やや曇
5:50 AM 46.4 °F 45.2 °F 42.8 °F 87% 30.48 インチ 6.2 マイル 西 3.5 Mph - N/A   やや曇
6:20 AM 46.4 °F 42.9 °F 42.8 °F 87% 30.48 インチ 6.2 マイル 西 6.9 Mph - N/A   やや曇
6:50 AM 48.2 °F - 44.6 °F 87% 30.48 インチ 6.2 マイル 西 4.6 Mph - N/A   だいたい曇
7:00 AM 48 °F - 44 °F 82% 30.50 インチ 11 マイル 西 4.6 Mph - -  
7:20 AM 50.0 °F - 44.6 °F 82% 30.51 インチ 6.2 マイル 西 5.8 Mph - N/A  
7:50 AM 50.0 °F - 44.6 °F 82% 30.51 インチ 6.2 マイル 西 5.8 Mph - N/A  
8:00 AM 49 °F - 45 °F 80% 30.51 インチ 12 マイル 西 4.6 Mph - -  
8:20 AM 50.0 °F - 46.4 °F 87% 30.51 インチ 6.2 マイル 西 5.8 Mph - N/A  
8:50 AM 51.8 °F - 46.4 °F 82% 30.51 インチ 6.2 マイル 西北西 4.6 Mph - N/A  
9:00 AM 51 °F - 45 °F 74% 30.51 インチ 10 マイル 西北西 4.6 Mph - -  
9:20 AM 51.8 °F - 46.4 °F 82% 30.51 インチ 6.2 マイル 西 5.8 Mph - N/A  
9:50 AM 53.6 °F - 46.4 °F 77% 30.51 インチ 6.2 マイル 西 6.9 Mph - N/A  
10:00 AM 53 °F - 45 °F 65% 30.51 インチ 11 マイル 西北西 5.8 Mph - -  
10:20 AM 53.6 °F - 46.4 °F 77% 30.51 インチ 6.2 マイル 西北西 6.9 Mph - N/A  
10:50 AM 55.4 °F - 46.4 °F 72% 30.51 インチ 6.2 マイル 西北西 5.8 Mph - N/A   情報なし
11:00 AM 56 °F - 46 °F 61% 30.50 インチ 13 マイル 西北西 5.8 Mph - -  
11:20 AM 57.2 °F - 48.2 °F 72% 30.51 インチ 6.2 マイル 西北西 6.9 Mph - N/A   情報なし
11:50 AM 59.0 °F - 46.4 °F 63% 30.48 インチ 6.2 マイル 西北西 8.1 Mph - N/A  
12:00 PM 59 °F - 43 °F 45% 30.49 インチ 16 マイル 西北西 8.1 Mph - -  
12:20 PM 59.0 °F - 44.6 °F 59% 30.48 インチ 6.2 マイル 西北西 8.1 Mph - N/A   だいたい曇
12:50 PM 59.0 °F - 42.8 °F 55% 30.48 インチ 6.2 マイル 西北西 8.1 Mph - N/A  
1:00 PM 59 °F - 42 °F 43% 30.48 インチ 22 マイル 北西 9.2 Mph - -  
1:20 PM 60.8 °F - 41.0 °F 48% 30.45 インチ 6.2 マイル 西北西 10.4 Mph - N/A  
1:50 PM 60.8 °F - 41.0 °F 48% 30.45 インチ 6.2 マイル 西北西 9.2 Mph - N/A  
2:20 PM 59.0 °F - 41.0 °F 51% 30.45 インチ 6.2 マイル 北西 9.2 Mph - N/A  
2:50 PM 59.0 °F - 41.0 °F 51% 30.45 インチ 6.2 マイル 西北西 9.2 Mph - N/A  
3:00 PM 60 °F - 41 °F 38% 30.45 インチ 11 マイル 西北西 10.4 Mph - -  
3:20 PM 59.0 °F - 42.8 °F 55% 30.45 インチ 6.2 マイル 北西 9.2 Mph - N/A  
3:50 PM 59.0 °F - 42.8 °F 55% 30.42 インチ 6.2 マイル 北西 9.2 Mph - N/A  
4:00 PM 59 °F - 42 °F 43% 30.44 インチ 28 マイル 西北西 8.1 Mph - -  
4:20 PM 59.0 °F - 42.8 °F 55% 30.42 インチ 6.2 マイル 西北西 9.2 Mph - N/A  
4:50 PM 59.0 °F - 42.8 °F 55% 30.42 インチ 6.2 マイル 西北西 8.1 Mph - N/A  
5:00 PM 59 °F - 42 °F 42% 30.43 インチ 22 マイル 西北西 6.9 Mph - -  
5:20 PM 57.2 °F - 42.8 °F 59% 30.42 インチ 6.2 マイル 西北西 8.1 Mph - N/A  
5:50 PM 57.2 °F - 41.0 °F 55% 30.42 インチ 6.2 マイル 西北西 6.9 Mph - N/A  
6:00 PM 58 °F - 41 °F 42% 30.42 インチ 25 マイル 西北西 8.1 Mph - -  
6:20 PM 57.2 °F - 42.8 °F 59% 30.42 インチ 6.2 マイル 西北西 6.9 Mph - N/A  
6:50 PM 57.2 °F - 42.8 °F 59% 30.42 インチ 6.2 マイル 北西 6.9 Mph - N/A   だいたい曇
7:00 PM 57 °F - 42 °F 46% 30.42 インチ 15 マイル 北北西 6.9 Mph - -  
7:20 PM 57.2 °F - 42.8 °F 59% 30.42 インチ 6.2 マイル 北西 6.9 Mph - N/A  
7:50 PM 55.4 °F - 42.8 °F 63% 30.42 インチ 6.2 マイル 北西 5.8 Mph - N/A  
8:00 PM 56 °F - 42 °F 48% 30.42 インチ 25 マイル 北西 4.6 Mph - -  
8:20 PM 55.4 °F - 42.8 °F 63% 30.42 インチ 6.2 マイル 北西 5.8 Mph - N/A   情報なし
8:50 PM 55.4 °F - 42.8 °F 63% 30.42 インチ 6.2 マイル 北北西 5.8 Mph - N/A  
9:00 PM 56 °F - 42 °F 49% 30.42 インチ 13 マイル 北北西 6.9 Mph - -  
9:20 PM 55.4 °F - 42.8 °F 63% 30.42 インチ 6.2 マイル 西北西 4.6 Mph - N/A  
9:50 PM 55.4 °F - 42.8 °F 63% 30.42 インチ 6.2 マイル 北西 5.8 Mph - N/A  
10:00 PM 55 °F - 43 °F 53% 30.42 インチ 17 マイル 北西 4.6 Mph - -  
10:20 PM 55.4 °F - 42.8 °F 63% 30.42 インチ 6.2 マイル 北西 5.8 Mph - N/A  
10:50 PM 55.4 °F - 42.8 °F 63% 30.42 インチ 6.2 マイル 西北西 5.8 Mph - N/A  
11:00 PM 55 °F - 42 °F 52% 30.41 インチ 12 マイル 西北西 4.6 Mph - -   もや(軽度)
11:20 PM 53.6 °F - 42.8 °F 67% 30.42 インチ 6.2 マイル 西北西 5.8 Mph - N/A  
11:50 PM 53.6 °F - 42.8 °F 67% 30.39 インチ 6.2 マイル 西北西 6.9 Mph - N/A   情報なし